When you browse on this site, cookies collect data to enhance your experience and personalize the content and advertising you see.
Visit our Privacy Policy to learn more. By continuing to use the site, you agree to this use of cookies and data.
  • In Belgium
  • List of Countries
  • For 7 days
  • Water Temperature
  • Satellite Maps
  • Weather Map
  • Weather Widgets
  • user-avatar
    Login

    Hourly Weather Mochudi

    Today, 19 July, Friday

    Time Temperature Precipitation Wind Pressure Humidity
    00:00 +14°C° 0 mm 2 mps 683 mmHg 27%
    01:00 +14°C° 0 mm 2 mps 682 mmHg 28%
    02:00 +13°C° 0 mm 2 mps 682 mmHg 30%
    03:00 +12°C° 0 mm 2 mps 682 mmHg 30%
    04:00 +12°C° 0 mm 2 mps 682 mmHg 30%
    05:00 +11°C° 0 mm 1 mps 681 mmHg 30%
    06:00 +12°C° 0 mm 1 mps 682 mmHg 28%
    07:00 +13°C° 0 mm 1 mps 682 mmHg 27%
    08:00 +14°C° 0 mm 1 mps 683 mmHg 24%
    09:00 +19°C° 0 mm 1 mps 684 mmHg 20%
    10:00 +21°C° 0 mm 2 mps 684 mmHg 16%
    11:00 +26°C° 0 mm 2 mps 685 mmHg 12%
    12:00 +27°C° 0 mm 3 mps 684 mmHg 10%
    13:00 +28°C° 0 mm 3 mps 684 mmHg 8%
    14:00 +30°C° 0 mm 3 mps 683 mmHg 7%
    15:00 +29°C° 0 mm 3 mps 682 mmHg 7%
    16:00 +28°C° 0 mm 3 mps 682 mmHg 7%
    17:00 +28°C° 0 mm 3 mps 682 mmHg 8%
    18:00 +25°C° 0 mm 3 mps 682 mmHg 9%
    19:00 +21°C° 0 mm 3 mps 681 mmHg 11%
    20:00 +18°C° 0 mm 3 mps 681 mmHg 13%
    21:00 +16°C° 0 mm 3 mps 681 mmHg 15%
    22:00 +14°C° 0 mm 3 mps 681 mmHg 16%
    23:00 +13°C° 0 mm 3 mps 681 mmHg 18%

    Tomorrow, 20 July, Saturday

    Time Temperature Precipitation Wind Pressure Humidity
    00:00 +12°C° 0 mm 3 mps 681 mmHg 19%
    01:00 +11°C° 0 mm 3 mps 681 mmHg 20%
    02:00 +11°C° 0 mm 3 mps 681 mmHg 21%
    03:00 +10°C° 0 mm 3 mps 681 mmHg 22%
    04:00 +9°C° 0 mm 3 mps 680 mmHg 24%
    05:00 +9°C° 0 mm 2 mps 680 mmHg 25%
    06:00 +9°C° 0 mm 2 mps 681 mmHg 29%
    07:00 +10°C° 0 mm 2 mps 682 mmHg 32%
    08:00 +10°C° 0 mm 2 mps 682 mmHg 36%
    09:00 +13°C° 0 mm 3 mps 683 mmHg 32%
    10:00 +18°C° 0 mm 3 mps 684 mmHg 28%
    11:00 +21°C° 0 mm 4 mps 684 mmHg 24%
    12:00 +23°C° 0 mm 4 mps 684 mmHg 20%
    13:00 +25°C° 0 mm 4 mps 683 mmHg 16%
    14:00 +27°C° 0 mm 4 mps 683 mmHg 11%
    15:00 +26°C° 0 mm 3 mps 683 mmHg 12%
    16:00 +26°C° 0 mm 3 mps 682 mmHg 13%
    17:00 +25°C° 0 mm 3 mps 682 mmHg 13%
    18:00 +21°C° 0 mm 3 mps 682 mmHg 17%
    19:00 +18°C° 0 mm 3 mps 682 mmHg 20%
    20:00 +16°C° 0 mm 2 mps 682 mmHg 23%
    21:00 +14°C° 0 mm 2 mps 682 mmHg 25%
    22:00 +13°C° 0 mm 2 mps 683 mmHg 27%
    23:00 +12°C° 0 mm 2 mps 683 mmHg 29%

    Day after tomorrow, 21 July, Sunday

    Time Temperature Precipitation Wind Pressure Humidity
    00:00 +10°C° 0 mm 2 mps 683 mmHg 31%
    01:00 +9°C° 0 mm 2 mps 682 mmHg 33%
    02:00 +9°C° 0 mm 1 mps 682 mmHg 36%
    03:00 +9°C° 0 mm 1 mps 682 mmHg 38%
    04:00 +8°C° 0 mm 1 mps 682 mmHg 41%
    05:00 +8°C° 0 mm 1 mps 682 mmHg 44%
    06:00 +8°C° 0 mm 1 mps 683 mmHg 44%
    07:00 +8°C° 0 mm 2 mps 684 mmHg 43%
    08:00 +8°C° 0 mm 2 mps 684 mmHg 43%
    09:00 +11°C° 0 mm 3 mps 685 mmHg 45%
    10:00 +13°C° 0 mm 4 mps 686 mmHg 48%
    11:00 +16°C° 0 mm 6 mps 686 mmHg 50%
    12:00 +17°C° 0 mm 6 mps 686 mmHg 49%
    13:00 +17°C° 0 mm 6 mps 685 mmHg 48%
    14:00 +19°C° 0 mm 6 mps 685 mmHg 47%
    15:00 +19°C° 0 mm 5 mps 685 mmHg 46%
    16:00 +17°C° 0 mm 5 mps 685 mmHg 45%
    17:00 +18°C° 0 mm 4 mps 685 mmHg 44%
    18:00 +15°C° 0 mm 4 mps 685 mmHg 51%
    19:00 +13°C° 0 mm 3 mps 685 mmHg 58%
    20:00 +11°C° 0 mm 3 mps 685 mmHg 66%
    21:00 +10°C° 0 mm 3 mps 685 mmHg 67%
    22:00 +10°C° 0 mm 3 mps 685 mmHg 69%
    23:00 +8°C° 0 mm 4 mps 686 mmHg 71%

    22 July, Monday

    Time Temperature Precipitation Wind Pressure Humidity
    00:00 +8°C° 0 mm 3 mps 686 mmHg 77%
    01:00 +7°C° 0 mm 3 mps 685 mmHg 82%
    02:00 +5°C° 0 mm 3 mps 685 mmHg 88%
    03:00 +5°C° 0 mm 3 mps 685 mmHg 90%
    04:00 +5°C° 0 mm 2 mps 685 mmHg 92%
    05:00 +4°C° 0 mm 2 mps 684 mmHg 94%
    06:00 +5°C° 0 mm 2 mps 685 mmHg 93%
    07:00 +5°C° 0 mm 2 mps 685 mmHg 92%
    08:00 +5°C° 0 mm 2 mps 685 mmHg 90%
    09:00 +9°C° 0 mm 3 mps 686 mmHg 76%
    10:00 +12°C° 0 mm 3 mps 686 mmHg 61%
    11:00 +15°C° 0 mm 4 mps 686 mmHg 46%
    12:00 +18°C° 0 mm 4 mps 685 mmHg 39%
    13:00 +20°C° 0 mm 3 mps 684 mmHg 32%
    14:00 +22°C° 0 mm 3 mps 684 mmHg 24%
    15:00 +22°C° 0 mm 3 mps 683 mmHg 24%
    16:00 +23°C° 0 mm 2 mps 683 mmHg 23%
    17:00 +23°C° 0 mm 2 mps 683 mmHg 22%
    18:00 +19°C° 0 mm 2 mps 682 mmHg 28%
    19:00 +16°C° 0 mm 2 mps 682 mmHg 34%
    20:00 +13°C° 0 mm 2 mps 682 mmHg 40%
    21:00 +12°C° 0 mm 2 mps 682 mmHg 45%
    22:00 +10°C° 0 mm 2 mps 682 mmHg 49%
    23:00 +9°C° 0 mm 2 mps 682 mmHg 53%

    23 July, Tuesday

    Time Temperature Precipitation Wind Pressure Humidity
    00:00 +10°C° 0 mm 1 mps 681 mmHg 56%
    01:00 +9°C° 0 mm 1 mps 681 mmHg 59%
    02:00 +8°C° 0 mm 1 mps 680 mmHg 62%
    03:00 +8°C° 0 mm 1 mps 680 mmHg 64%
    04:00 +7°C° 0 mm 1 mps 680 mmHg 66%
    05:00 +7°C° 0 mm 1 mps 680 mmHg 68%
    06:00 +8°C° 0 mm 1 mps 680 mmHg 64%
    07:00 +9°C° 0 mm 1 mps 681 mmHg 61%
    08:00 +10°C° 0 mm 1 mps 681 mmHg 57%
    09:00 +14°C° 0 mm 2 mps 682 mmHg 47%
    10:00 +18°C° 0 mm 2 mps 682 mmHg 36%
    11:00 +22°C° 0 mm 3 mps 683 mmHg 26%
    12:00 +25°C° 0 mm 3 mps 682 mmHg 21%
    13:00 +27°C° 0 mm 4 mps 682 mmHg 16%
    14:00 +30°C° 0 mm 4 mps 681 mmHg 11%
    15:00 +29°C° 0 mm 3 mps 681 mmHg 12%
    16:00 +28°C° 0 mm 3 mps 680 mmHg 13%
    17:00 +28°C° 0 mm 2 mps 680 mmHg 13%
    18:00 +25°C° 0 mm 2 mps 680 mmHg 16%
    19:00 +21°C° 0 mm 2 mps 679 mmHg 20%
    20:00 +18°C° 0 mm 2 mps 679 mmHg 23%
    21:00 +17°C° 0 mm 2 mps 679 mmHg 24%
    22:00 +17°C° 0 mm 3 mps 679 mmHg 25%
    23:00 +16°C° 0 mm 3 mps 679 mmHg 26%

    24 July, Wednesday

    Time Temperature Precipitation Wind Pressure Humidity
    00:00 +16°C° 0 mm 3 mps 679 mmHg 28%
    01:00 +15°C° 0 mm 4 mps 679 mmHg 30%
    02:00 +15°C° 0 mm 4 mps 679 mmHg 32%
    03:00 +14°C° 0 mm 4 mps 679 mmHg 32%
    04:00 +14°C° 0 mm 4 mps 680 mmHg 32%
    05:00 +14°C° 0 mm 4 mps 681 mmHg 32%
    06:00 +13°C° 0 mm 5 mps 681 mmHg 38%
    07:00 +11°C° 0 mm 6 mps 682 mmHg 45%
    08:00 +10°C° 0 mm 7 mps 683 mmHg 51%
    09:00 +11°C° 0 mm 7 mps 684 mmHg 44%
    10:00 +14°C° 0 mm 6 mps 684 mmHg 37%
    11:00 +16°C° 0 mm 6 mps 685 mmHg 30%
    12:00 +19°C° 0 mm 6 mps 684 mmHg 25%
    13:00 +21°C° 0 mm 5 mps 684 mmHg 19%
    14:00 +22°C° 0 mm 5 mps 684 mmHg 14%
    15:00 +22°C° 0 mm 5 mps 684 mmHg 13%
    16:00 +21°C° 0 mm 4 mps 684 mmHg 13%
    17:00 +21°C° 0 mm 4 mps 684 mmHg 13%
    18:00 +18°C° 0 mm 4 mps 684 mmHg 15%
    19:00 +14°C° 0 mm 3 mps 684 mmHg 17%
    20:00 +11°C° 0 mm 3 mps 684 mmHg 19%
    21:00 +10°C° 0 mm 3 mps 684 mmHg 21%
    22:00 +9°C° 0 mm 3 mps 684 mmHg 23%
    23:00 +8°C° 0 mm 3 mps 684 mmHg 24%
    Show more